TimeEDT,TemperatureF,Dew PointF,Humidity,Sea Level PressureIn,VisibilityMPH,Wind Direction,Wind SpeedMPH,Gust SpeedMPH,PrecipitationIn,Events,Conditions,WindDirDegrees,DateUTC
12:53 AM,82.9,73.9,74,30.08,10.0,ESE,8.1,16.1,N/A,,Clear,110,2013-07-04 04:53:00
1:53 AM,84.0,73.0,69,30.06,10.0,East,11.5,17.3,N/A,,Partly Cloudy,100,2013-07-04 05:53:00
2:53 AM,84.0,73.9,72,30.04,10.0,East,9.2,17.3,N/A,,Clear,100,2013-07-04 06:53:00
3:53 AM,84.0,73.0,69,30.04,10.0,ESE,12.7,21.9,N/A,,Scattered Clouds,120,2013-07-04 07:53:00
4:53 AM,84.0,73.9,72,30.04,10.0,ESE,9.2,20.7,N/A,,Scattered Clouds,110,2013-07-04 08:53:00
5:53 AM,84.0,73.9,72,30.04,10.0,ESE,10.4,18.4,N/A,,Scattered Clouds,110,2013-07-04 09:53:00
6:53 AM,84.9,73.9,69,30.05,10.0,ESE,10.4,19.6,N/A,,Partly Cloudy,120,2013-07-04 10:53:00
7:53 AM,84.0,73.0,69,30.07,10.0,ESE,11.5,20.7,0.01,,Partly Cloudy,120,2013-07-04 11:53:00
8:53 AM,84.0,71.1,65,30.10,4.0,SE,15.0,27.6,0.01,,Haze,130,2013-07-04 12:53:00
8:56 AM,82.4,71.6,70,30.10,1.5,SE,15.0,27.6,0.03,Rain,Rain,130,2013-07-04 12:56:00
9:05 AM,80.6,71.6,74,30.10,3.0,East,12.7,21.9,0.03,Rain,Light Rain,100,2013-07-04 13:05:00
9:53 AM,84.0,73.9,72,30.11,10.0,ESE,11.5,19.6,0.03,,Clear,110,2013-07-04 13:53:00
10:53 AM,86.0,72.0,63,30.11,10.0,East,12.7,20.7,N/A,,Clear,100,2013-07-04 14:53:00
11:18 AM,87.8,73.4,62,30.10,10.0,ESE,9.2,17.3,N/A,Thunderstorm,Clear,120,2013-07-04 15:18:00
11:33 AM,89.6,75.2,62,30.11,10.0,ESE,8.1,-,N/A,,Clear,120,2013-07-04 15:33:00
11:53 AM,87.1,73.9,65,30.11,10.0,ESE,10.4,18.4,N/A,,Partly Cloudy,110,2013-07-04 15:53:00
12:53 PM,90.0,75.0,61,30.10,10.0,ESE,10.4,18.4,N/A,,Partly Cloudy,110,2013-07-04 16:53:00
1:53 PM,90.0,75.0,61,30.09,10.0,ESE,10.4,20.7,N/A,,Partly Cloudy,120,2013-07-04 17:53:00
2:53 PM,90.0,73.9,59,30.08,10.0,East,9.2,18.4,N/A,,Scattered Clouds,100,2013-07-04 18:53:00
3:53 PM,90.0,73.9,59,30.07,10.0,ESE,10.4,20.7,N/A,,Partly Cloudy,110,2013-07-04 19:53:00
4:53 PM,90.0,73.0,57,30.05,10.0,ESE,11.5,20.7,N/A,,Partly Cloudy,110,2013-07-04 20:53:00
5:53 PM,88.0,73.0,61,30.04,10.0,ESE,6.9,-,N/A,,Clear,120,2013-07-04 21:53:00
6:53 PM,88.0,71.1,57,30.06,10.0,East,10.4,16.1,N/A,,Clear,100,2013-07-04 22:53:00
7:53 PM,86.0,71.1,61,30.06,10.0,ESE,10.4,16.1,N/A,,Clear,110,2013-07-04 23:53:00
8:53 PM,86.0,72.0,63,30.08,10.0,ESE,6.9,-,N/A,,Partly Cloudy,110,2013-07-05 00:53:00
9:53 PM,84.9,73.0,67,30.10,10.0,East,8.1,17.3,N/A,,Partly Cloudy,100,2013-07-05 01:53:00
10:53 PM,84.9,73.0,67,30.11,8.0,ESE,9.2,16.1,0.01,Rain,Light Rain,110,2013-07-05 02:53:00
11:53 PM,82.9,72.0,69,30.12,10.0,SSE,10.4,19.6,0.00,,Clear,150,2013-07-05 03:53:00